Weather History for Vero Beach, FL

Change the Weather History Date:

Monday, November 26, 2012

  Actual Average Record
Temperature  
Mean Temperature 65 °F 68 °F  
Max Temperature 77 °F 77 °F 85 °F (1989)
Min Temperature 52 °F 59 °F 33 °F (1950)
Degree Days  
Heating Degree Days 0 2  
Month to date heating degree days 35 19  
Since 1 July heating degree days 52 22  
Cooling Degree Days 0 5  
Month to date cooling degree days 63 164  
Year to date cooling degree days 3408 3292  
Growing Degree Days 14 (Base 50)    
Moisture  
Dew Point 59 °F    
Average Humidity 80    
Maximum Humidity 100    
Minimum Humidity 60    
Precipitation  
Precipitation 0.00 in 0.10 in 1.17 in (1979)
Month to date precipitation 0.85 2.89  
Year to date precipitation 46.39 49.29  
Sea Level Pressure  
Sea Level Pressure 30.18 in    
Wind  
Wind Speed 4 mph (East)    
Max Wind Speed 12 mph    
Max Gust Speed 16 mph    
Visibility 10 miles    
Events      
T = Trace of Precipitation, MM = Missing Value Source: NWS Daily Summary

Daily Weather History Graph

Daily Weather History Graph

Search for Another Location

Airport:

Trip Planner

Search our weather history database for the weather conditions in past years. The results will help you decide how hot, cold, wet, or windy it might be!

Date:

Astronomy

Nov. 26, 2012 Rise Set
Actual Time 6:51 AM EST 5:26 PM EST
Civil Twilight 6:26 AM EST 5:51 PM EST
Nautical Twilight 5:57 AM EST 6:20 PM EST
Astronomical Twilight 5:29 AM EST 6:48 PM EST
Moon 4:13 PM EST (11/26) 5:05 AM EST (11/26)
Length of Visible Light 11h 25m
Length of Day
10h 35m
Waxing Gibbous, 97% of the Moon is Illuminated
Nov 26
Waxing Gibbous
Nov 28
Full
Dec 6
Last Quarter
Dec 13
New
Dec 20
First Quarter

Hourly Weather History & Observations

Time (EST) Temp. Dew Point Humidity Pressure Visibility Wind Dir Wind Speed Gust Speed Precip Events Conditions
12:53 AM 57.9 °F 55.0 °F 90% 30.14 in 10.0 mi Calm Calm - N/A   Mostly Cloudy
1:53 AM 55.9 °F 53.1 °F 90% 30.14 in 10.0 mi Calm Calm - N/A   Scattered Clouds
2:53 AM 55.0 °F 53.1 °F 93% 30.14 in 10.0 mi Calm Calm - N/A   Partly Cloudy
3:53 AM 57.0 °F 55.0 °F 93% 30.14 in 10.0 mi Calm Calm - N/A   Scattered Clouds
4:53 AM 52.0 °F 51.1 °F 97% 30.14 in 10.0 mi Calm Calm - N/A   Clear
5:53 AM 52.0 °F 50.0 °F 93% 30.15 in 10.0 mi Calm Calm - N/A   Clear
6:53 AM 53.1 °F 50.0 °F 89% 30.18 in 10.0 mi Calm Calm - N/A   Clear
7:53 AM 57.9 °F 55.9 °F 93% 30.19 in 10.0 mi Calm Calm - N/A   Clear
8:53 AM 69.1 °F 62.1 °F 78% 30.21 in 10.0 mi North 3.5 mph - N/A   Clear
9:53 AM 73.9 °F 61.0 °F 64% 30.22 in 10.0 mi NE 3.5 mph - N/A   Clear
10:53 AM 75.9 °F 60.1 °F 58% 30.23 in 10.0 mi East 6.9 mph - N/A   Scattered Clouds
11:53 AM 75.9 °F 60.1 °F 58% 30.21 in 10.0 mi ENE 6.9 mph - N/A   Scattered Clouds
12:53 PM 75.9 °F 60.1 °F 58% 30.18 in 10.0 mi East 8.1 mph - N/A   Partly Cloudy
1:53 PM 75.9 °F 61.0 °F 60% 30.16 in 10.0 mi East 8.1 mph - N/A   Clear
2:53 PM 75.0 °F 62.1 °F 64% 30.15 in 10.0 mi NE 10.4 mph - N/A   Scattered Clouds
3:53 PM 75.0 °F 62.1 °F 64% 30.16 in 10.0 mi ESE 10.4 mph - N/A   Scattered Clouds
4:53 PM 73.0 °F 62.1 °F 68% 30.16 in 10.0 mi ESE 5.8 mph - N/A   Scattered Clouds
5:53 PM 69.1 °F 61.0 °F 75% 30.16 in 10.0 mi ESE 5.8 mph - N/A   Clear
6:53 PM 68.0 °F 61.0 °F 78% 30.18 in 10.0 mi East 4.6 mph - N/A   Clear
7:53 PM 64.0 °F 59.0 °F 84% 30.19 in 10.0 mi Calm Calm - N/A   Mostly Cloudy
8:53 PM 69.1 °F 62.1 °F 78% 30.20 in 10.0 mi East 4.6 mph - N/A   Overcast
9:53 PM 70.0 °F 63.0 °F 78% 30.21 in 10.0 mi ESE 5.8 mph - N/A   Overcast
10:53 PM 68.0 °F 63.0 °F 84% 30.20 in 10.0 mi SE 5.8 mph - N/A   Overcast
11:53 PM 64.9 °F 62.1 °F 90% 30.20 in 10.0 mi SE 4.6 mph - N/A   Partly Cloudy